Other Surface Observations
Issued by NWS Tucson, AZ

Home | Current Version | Previous Version | Text Only | Print | Product List | Glossary On
Versions: 1 2 3 4 5 6 7 8 9 10 11 12 13 14 15 16 17 18 19 20 21 22 23 24 25 26 27 28 29 30 31 32 33 34 35 36 37 38 39 40 41 42 43 44 45 46 47 48 49 50
000
SXUS55 KTWC 030216
OSOTWC

WEATHER ROUNDUP FOR SOUTHEAST ARIZONA
NATIONAL WEATHER SERVICE TUCSON AZ
715 PM MST TUE SEP 02 2014

AZZ504>506-514-030315-
LOCATION       SKY/WX    TMP DP  RH WIND       PRES   REMARKS
TUCSON         CLEAR     98  40  13 N6        29.83R
DAVIS-MONTHAN  CLEAR     96  42  15 N6        29.82R
CHILDRENS PARK N/A      101  41  13 N3                PIMA CO DEQ
ALVERNON/22ND  N/A      N/A N/A N/A N/A               PIMA CO DEQ
CHERRY/GLENN   N/A      N/A N/A N/A N/A               PIMA CO DEQ
TANGERINE      N/A      102 N/A N/A NW5               PIMA CO DEQ
CONTL RANCH    N/A      103  41  12 N6                PIMA CO DEQ
GRANT/1ST      N/A      102  40  12 NW4               PIMA CO DEQ
CRAYCROFT/22ND N/A      N/A N/A N/A N/A               PIMA CO DEQ
GOLFLINKS/KOLB N/A      N/A N/A N/A N/A               PIMA CO DEQ
AJO/12TH       N/A      101  39  12 NW3               PIMA CO DEQ
SAGUARO EAST   N/A      N/A N/A N/A N/A               PIMA CO DEQ
FAIRGROUNDS    N/A       99 N/A N/A N7                PIMA CO DEQ
SAGUARO        N/A      100  40  13 NW6G10            *SABINO CYN
SAN CARLOS     N/A       99  41  14 W8G13             *SAN CARLOS
GREEN VALLEY   N/A      101  41  13 W3                PIMA CO DEQ
HORSE CAMP CYN N/A       93  38  15 W13G19            *ARAVAIPA CYN
RINCON MTNS    N/A       67  36  32 CALM              *NR MANNING CAMP
$$

AZZ509>511-030315-
LOCATION       SKY/WX    TMP DP  RH WIND       PRES   REMARKS
SAFFORD        CLEAR     94  35  12 NW12      29.83S
STRAY HORSE    N/A       73  33  23 W6G15             *
TRAIL CABIN    N/A       80  30  16 W4G12             *N OF GRANVILLE
BLACK HILLS    N/A       93  35  13 NW5G15            *N OF FT THOMAS
DRY LAKE       N/A       72  34  25 W3                *NATANES MTNS
NOON CREEK     N/A       78  44  30 W6                *PINALENO MTNS
COLUMBINE      N/A       69  35  28 S3                *PINALENO MTNS
GUTHRIE        N/A       84  31  15 W9G22             *SW OF GUTHRIE
$$

AZZ502-503-513-030315-
LOCATION       SKY/WX    TMP DP  RH WIND       PRES   REMARKS
NOGALES        CLEAR     87  47  24 NW5       29.94R
SELLS          N/A      100  46  16 W10G15            *
SASABE         N/A       96  43  16 W6G12             *ALTAR VLY
HOPKINS        N/A       82  43  25 W8G17             *SANTA RITA MTNS
CARR CYN       N/A       76  45  33 SW4               *W OF HEREFORD
$$

AZZ507-508-512-030315-
LOCATION       SKY/WX    TMP DP  RH WIND       PRES   REMARKS
SIERRA VISTA   PTCLDY    84  43  23 W7        30.02R
DOUGLAS        CLEAR     84  48  28 NE7       29.96R
EMPIRE MTNS    N/A       83  42  24 NW3               *LAS CIENEGAS NCA
MULESHOE RANCH N/A       92  34  13 NW5G14            *PRESERVE
HEADQUARTERS   N/A       83  41  23 CALM              *CHIRICAHUA MTNS
$$

.............................NOTES.............................
THIS IS AN AUTOMATED COLLECTIVE WITH MINIMAL QUALITY CONTROL.
PIMA CO DEQ SITES HAVE NONSTANDARD WIND SENSOR HEIGHTS.
PIMA CO DEQ SITES DO NOT REPORT WIND GUSTS.
* INDICATES WIND SENSORS LOCATED AT 20 FEET INSTEAD OF 33 FEET.
..............................KEY..............................
SKY/WX - SKY CONDITION/WEATHER
TMP    - TEMPERATURE IN FAHRENHEIT
DP     - DEWPOINT IN FAHRENHEIT
RH     - RELATIVE HUMIDITY IN PERCENT
WIND   - DIRECTION AND SPEED IN MILES PER HOUR (MPH)
VRB    - VARIABLE WIND DIRECTION
PRES   - MEAN SEA LEVEL PRESSURE IN INCHES OF MERCURY
         F - FALLING PRESSURE   R - RISING PRESSURE
         S - STEADY PRESSURE
VSB    - VISIBILITY IN MILES
HX     - HEAT INDEX IN FAHRENHEIT
WCI    - WIND CHILL INDEX IN FAHRENHEIT
N/A    - NOT AVAILABLE
AFB    - AIR FORCE BASE
         DAVIS-MONTHAN IS DAVIS-MONTHAN AIR FORCE BASE
CYN    - CANYON
MTNS   - MOUNTAINS
NCA    - NATIONAL CONSERVATION AREA
NR     - NEAR
VLY    - VALLEY
CONTL  - CONTINENTAL
PIMA CO DEQ - PIMA COUNTY DEPT OF ENVIRONMENTAL QUALITY



USA.gov is the U.S. government's official web portal to all federal, state and local government web resources and services.